• In Uzbekistan
  • List of Countries
  • For 7 days
  • Water Temperature
  • Satellite Maps
  • Weather Map
  • Weather Widgets
  • user-avatar
    Login

    Hourly Weather Bangarmau

    Today, 24 February, Saturday

    Time Temperature Precipitation Wind Pressure Humidity
    00:00 +24°C° 0 mm 2 mps 745 mmHg 52%
    01:00 +23°C° 0 mm 2 mps 745 mmHg 54%
    02:00 +23°C° 0 mm 2 mps 745 mmHg 55%
    03:00 +21°C° 0 mm 2 mps 745 mmHg 57%
    04:00 +21°C° 0 mm 2 mps 745 mmHg 58%
    05:00 +22°C° 0 mm 1 mps 745 mmHg 64%
    06:00 +23°C° 0 mm 2 mps 746 mmHg 62%
    07:00 +24°C° 0 mm 2 mps 747 mmHg 61%
    08:00 +25°C° 0 mm 2 mps 747 mmHg 59%
    09:00 +27°C° 0 mm 2 mps 747 mmHg 52%
    10:00 +30°C° 0 mm 2 mps 747 mmHg 45%
    11:00 +33°C° 0 mm 3 mps 747 mmHg 37%
    12:00 +34°C° 0 mm 2 mps 747 mmHg 34%
    13:00 +35°C° 0 mm 2 mps 746 mmHg 31%
    14:00 +35°C° 0 mm 1 mps 745 mmHg 28%
    15:00 +34°C° 0 mm 1 mps 745 mmHg 31%
    16:00 +33°C° 0 mm 1 mps 745 mmHg 34%
    17:00 +32°C° 0 mm 1 mps 745 mmHg 37%
    18:00 +30°C° 0 mm 2 mps 745 mmHg 39%
    19:00 +29°C° 0 mm 2 mps 745 mmHg 42%
    20:00 +27°C° 0 mm 3 mps 746 mmHg 44%
    21:00 +26°C° 0 mm 2 mps 746 mmHg 47%
    22:00 +26°C° 0 mm 2 mps 746 mmHg 50%
    23:00 +25°C° 0 mm 2 mps 746 mmHg 53%

    Tomorrow, 25 February, Sunday

    Time Temperature Precipitation Wind Pressure Humidity
    00:00 +25°C° 0 mm 2 mps 746 mmHg 54%
    01:00 +24°C° 0 mm 2 mps 746 mmHg 56%
    02:00 +24°C° 0 mm 2 mps 746 mmHg 57%
    03:00 +23°C° 0.2 mm 2 mps 746 mmHg 60%
    04:00 +23°C° 0.2 mm 2 mps 746 mmHg 62%
    05:00 +21°C° 0.2 mm 2 mps 747 mmHg 65%
    06:00 +23°C° 0 mm 2 mps 747 mmHg 64%
    07:00 +24°C° 0 mm 2 mps 748 mmHg 63%
    08:00 +24°C° 0 mm 2 mps 749 mmHg 62%
    09:00 +26°C° 0.2 mm 2 mps 749 mmHg 56%
    10:00 +28°C° 0.2 mm 2 mps 749 mmHg 51%
    11:00 +30°C° 0.2 mm 3 mps 749 mmHg 45%
    12:00 +31°C° 0 mm 2 mps 749 mmHg 41%
    13:00 +32°C° 0 mm 1 mps 748 mmHg 38%
    14:00 +32°C° 0 mm 0 mps 747 mmHg 34%
    15:00 +33°C° 0 mm 1 mps 746 mmHg 37%
    16:00 +31°C° 0 mm 1 mps 746 mmHg 40%
    17:00 +30°C° 0 mm 2 mps 746 mmHg 42%
    18:00 +29°C° 0 mm 2 mps 746 mmHg 45%
    19:00 +27°C° 0 mm 3 mps 746 mmHg 47%
    20:00 +25°C° 0 mm 3 mps 747 mmHg 49%
    21:00 +25°C° 0 mm 3 mps 747 mmHg 50%
    22:00 +24°C° 0 mm 3 mps 747 mmHg 51%
    23:00 +22°C° 0 mm 3 mps 746 mmHg 52%

    Day after tomorrow, 26 February, Monday

    Time Temperature Precipitation Wind Pressure Humidity
    00:00 +22°C° 0 mm 3 mps 746 mmHg 53%
    01:00 +21°C° 0 mm 3 mps 746 mmHg 53%
    02:00 +21°C° 0 mm 3 mps 746 mmHg 53%
    03:00 +20°C° 0 mm 3 mps 746 mmHg 54%
    04:00 +19°C° 0 mm 3 mps 746 mmHg 56%
    05:00 +19°C° 0 mm 3 mps 746 mmHg 57%
    06:00 +20°C° 0 mm 3 mps 746 mmHg 55%
    07:00 +21°C° 0 mm 4 mps 747 mmHg 53%
    08:00 +22°C° 0 mm 4 mps 748 mmHg 51%
    09:00 +25°C° 0 mm 4 mps 748 mmHg 45%
    10:00 +27°C° 0 mm 5 mps 748 mmHg 38%
    11:00 +29°C° 0 mm 5 mps 748 mmHg 32%
    12:00 +30°C° 0 mm 5 mps 747 mmHg 29%
    13:00 +32°C° 0 mm 5 mps 746 mmHg 27%
    14:00 +33°C° 0 mm 5 mps 745 mmHg 25%
    15:00 +32°C° 0 mm 5 mps 745 mmHg 29%
    16:00 +29°C° 0 mm 4 mps 745 mmHg 33%
    17:00 +28°C° 0 mm 3 mps 744 mmHg 37%
    18:00 +26°C° 0 mm 3 mps 745 mmHg 38%
    19:00 +25°C° 0 mm 2 mps 745 mmHg 40%
    20:00 +23°C° 0 mm 2 mps 746 mmHg 41%
    21:00 +23°C° 0 mm 2 mps 746 mmHg 42%
    22:00 +21°C° 0 mm 2 mps 746 mmHg 42%
    23:00 +21°C° 0 mm 2 mps 746 mmHg 43%

    27 February, Tuesday

    Time Temperature Precipitation Wind Pressure Humidity
    00:00 +20°C° 0 mm 2 mps 746 mmHg 44%
    01:00 +20°C° 0 mm 2 mps 745 mmHg 45%
    02:00 +19°C° 0 mm 2 mps 745 mmHg 46%
    03:00 +19°C° 0 mm 2 mps 745 mmHg 47%
    04:00 +19°C° 0 mm 2 mps 745 mmHg 48%
    05:00 +18°C° 0 mm 2 mps 745 mmHg 49%
    06:00 +19°C° 0 mm 2 mps 746 mmHg 48%
    07:00 +20°C° 0 mm 2 mps 747 mmHg 47%
    08:00 +21°C° 0 mm 2 mps 748 mmHg 47%
    09:00 +25°C° 0 mm 2 mps 748 mmHg 41%
    10:00 +27°C° 0 mm 3 mps 748 mmHg 36%
    11:00 +29°C° 0 mm 3 mps 748 mmHg 31%
    12:00 +30°C° 0 mm 4 mps 747 mmHg 30%
    13:00 +32°C° 0 mm 4 mps 746 mmHg 28%
    14:00 +33°C° 0 mm 4 mps 745 mmHg 27%
    15:00 +32°C° 0 mm 4 mps 745 mmHg 31%
    16:00 +30°C° 0 mm 3 mps 744 mmHg 35%
    17:00 +28°C° 0 mm 2 mps 744 mmHg 39%
    18:00 +27°C° 0 mm 2 mps 744 mmHg 42%
    19:00 +25°C° 0 mm 2 mps 745 mmHg 44%
    20:00 +24°C° 0 mm 2 mps 745 mmHg 46%
    21:00 +23°C° 0 mm 1 mps 745 mmHg 47%
    22:00 +23°C° 0 mm 1 mps 745 mmHg 49%
    23:00 +22°C° 0 mm 1 mps 745 mmHg 50%

    28 February, Wednesday

    Time Temperature Precipitation Wind Pressure Humidity
    00:00 +22°C° 0 mm 1 mps 745 mmHg 51%
    01:00 +21°C° 0 mm 1 mps 745 mmHg 51%
    02:00 +21°C° 0 mm 1 mps 744 mmHg 52%
    03:00 +21°C° 0 mm 1 mps 745 mmHg 53%
    04:00 +20°C° 0 mm 1 mps 745 mmHg 54%
    05:00 +20°C° 0 mm 1 mps 745 mmHg 55%
    06:00 +21°C° 0 mm 1 mps 746 mmHg 53%
    07:00 +22°C° 0 mm 1 mps 746 mmHg 51%
    08:00 +24°C° 0 mm 1 mps 747 mmHg 48%
    09:00 +26°C° 0 mm 1 mps 747 mmHg 43%
    10:00 +28°C° 0 mm 2 mps 747 mmHg 38%
    11:00 +31°C° 0 mm 2 mps 747 mmHg 33%
    12:00 +33°C° 0 mm 3 mps 746 mmHg 30%
    13:00 +34°C° 0 mm 4 mps 745 mmHg 28%
    14:00 +35°C° 0 mm 4 mps 744 mmHg 25%
    15:00 +34°C° 0 mm 4 mps 744 mmHg 29%
    16:00 +31°C° 0 mm 3 mps 743 mmHg 33%
    17:00 +30°C° 0 mm 3 mps 743 mmHg 36%
    18:00 +29°C° 0 mm 2 mps 743 mmHg 38%
    19:00 +27°C° 0 mm 2 mps 744 mmHg 39%
    20:00 +26°C° 0 mm 2 mps 744 mmHg 40%
    21:00 +25°C° 0 mm 2 mps 744 mmHg 41%
    22:00 +24°C° 0 mm 2 mps 744 mmHg 42%
    23:00 +24°C° 0 mm 2 mps 744 mmHg 43%

    1 March, Thursday

    Time Temperature Precipitation Wind Pressure Humidity
    00:00 +23°C° 0 mm 2 mps 744 mmHg 43%
    01:00 +23°C° 0 mm 2 mps 743 mmHg 44%
    02:00 +21°C° 0 mm 2 mps 743 mmHg 44%
    03:00 +21°C° 0 mm 2 mps 743 mmHg 44%
    04:00 +21°C° 0 mm 2 mps 743 mmHg 44%
    05:00 +21°C° 0 mm 2 mps 743 mmHg 44%
    06:00 +23°C° 0 mm 2 mps 744 mmHg 44%
    07:00 +24°C° 0 mm 2 mps 744 mmHg 43%
    08:00 +25°C° 0 mm 3 mps 745 mmHg 43%
    09:00 +28°C° 0 mm 3 mps 745 mmHg 38%
    10:00 +30°C° 0 mm 4 mps 745 mmHg 32%
    11:00 +34°C° 0 mm 5 mps 745 mmHg 27%
    12:00 +35°C° 0 mm 5 mps 744 mmHg 25%
    13:00 +35°C° 0 mm 6 mps 743 mmHg 22%
    14:00 +36°C° 0 mm 6 mps 743 mmHg 20%
    15:00 +35°C° 0 mm 5 mps 742 mmHg 24%
    16:00 +34°C° 0 mm 4 mps 742 mmHg 28%
    17:00 +31°C° 0 mm 3 mps 742 mmHg 31%
    18:00 +30°C° 0 mm 2 mps 742 mmHg 32%
    19:00 +28°C° 0 mm 2 mps 742 mmHg 33%
    20:00 +26°C° 0 mm 2 mps 743 mmHg 34%
    21:00 +26°C° 0 mm 2 mps 743 mmHg 34%
    22:00 +26°C° 0 mm 2 mps 743 mmHg 34%
    23:00 +25°C° 0 mm 2 mps 743 mmHg 34%
    Show more